To NAV CANADA Home Page Login to a new session Search on AWWS site Feedback and Comments Disclaimer Vers la page française équivalente Tips FAQ What's new on the site To the Forecasts and Observations / NOTAM section To "File a Flight Plan" website Publications and other links Update of the User's profile FIC Telephone Numbers My Weather Data Folder Route Weather Data Regional Weather Data Local Weather Data To the Forecasts and Observations / NOTAM section
Request Generated 12/04/2016 at 22:19:19 UTC . Weather information available at that time is displayed.

METAR/TAF

UMIUJAQ/QC    

LWIS CYMU 042200Z AUTO 26013KT M03/M05 A3008=
LWIS CYMU 042100Z AUTO 27015KT M03/M05 A3007=
LWIS CYMU 042000Z AUTO 27017KT M03/M05 A3007=

CYMU - No TAF is issued for this station

Your time UTC time
Weather data provided by Environment Canada and NAV CANADA